Home   Weather   Spokane   Past weeks

Flag for USA Past Weather in Spokane, Washington, USA — Yesterday and Last 2 Weeks

Now
51 °F

Clear.


Feels Like: 51 °F
Forecast: 52 / 81 °F
Wind: No wind

Location: Felts Field

Current Time: Sep 29, 2016 at 6:46:41 AM

Latest Report: Sep 29, 2016 at 5:53 AM


Visibility: 10 mi

Pressure: 29.94 "Hg (27.95 "Hg at 569m altitude)

Humidity: 86%

Dew Point: 47 °F

Location of SpokaneLocation

Past Weather in Spokane — Graph

°F

Spokane Temperature Yesterday

Maximum temperature yesterday: 82 °F (at 4:53 PM)
Minimum temperature yesterday: 48 °F (at 5:53 AM)
Average temperature yesterday: 63 °F

High & Low Weather Summary for the Past Weeks

 TemperatureHumidityPressure
High84 °F (Sep 26, 3:53 PM)89% (Sep 28, 5:53 AM)30.43 "Hg (Sep 28, 5:53 AM)
Low39 °F (Sep 14, 5:53 AM)18% (Sep 16, 2:53 PM)29.81 "Hg (Sep 17, 6:53 PM)
Average60 °F55%30.04 "Hg
* Reported Sep 14 5:53 AM — Sep 29 5:53 AM, Spokane, Weather by CustomWeather, © 2016

Note: Actual official high and low records may vary slightly from our data, if they occured in-between our weather recording intervals... More about our weather records

Advertising

Spokane Weather History for the Previous 24 Hours

Scroll right to see more
 ConditionsComfort  
Time TempWeatherWind HumidityBarometerVisibility
5:53 AM
Thu, Sep 29
51 °FClear.No wind86%29.94 "Hg10 mi
4:53 AM51 °FClear.No wind86%29.93 "Hg10 mi
3:53 AM52 °FClear.No wind86%29.93 "Hg10 mi
2:53 AM54 °FClear.No wind80%29.93 "Hg10 mi
1:53 AM54 °FClear.No wind80%29.92 "Hg10 mi
12:53 AM56 °FClear.No wind70%29.92 "Hg10 mi
11:53 PM
Wed, Sep 28
57 °FClear.No wind69%29.92 "Hg10 mi
10:53 PM60 °FClear.No wind58%29.93 "Hg10 mi
9:53 PM61 °FClear.No wind56%29.93 "Hg10 mi
8:53 PM63 °FClear.No wind52%29.92 "Hg10 mi
7:53 PM66 °FClear.No wind49%29.93 "Hg10 mi
6:53 PM70 °FClear.No wind42%29.92 "Hg9 mi
5:53 PM79 °FSunny.3 mph32%29.91 "Hg10 mi
4:53 PM82 °FSunny.6 mph29%29.91 "Hg10 mi
3:53 PM81 °FSunny.No wind30%29.91 "Hg10 mi
2:53 PM81 °FSunny.No wind30%29.93 "Hg10 mi
1:53 PM78 °FSunny.3 mph33%29.95 "Hg10 mi
12:53 PM75 °FSunny.No wind37%29.97 "Hg10 mi
11:53 AM74 °FSunny.No wind38%29.99 "Hg10 mi
10:53 AM67 °FSunny.No wind47%30.02 "Hg10 mi
9:53 AM65 °FSunny.No wind49%30.03 "Hg10 mi
8:53 AM59 °FSunny.No wind62%30.04 "Hg10 mi
7:53 AM52 °FSunny.No wind75%30.04 "Hg10 mi
6:53 AM48 °FSunny.No wind86%30.03 "Hg8 mi
Weather by CustomWeather, © 2016

See weather overviewHow to use our weather pages